User: anonymous
Location: Unspecified
(0.0000°N, 0.0000°E)
Time: 06:33:23
(UTC+00:00)
Language:

Altair - Orbit

View from above orbital plane
View from above orbital plane
View from above satellite
View from above satellite

Ground track
Ground track

The orbit data is extracted from the following two-line orbital elements,

1 00050U 60009B   14212.59683135 -.00000072  00000-0  13499-3 0   811
2 00050 047.2310 307.3836 0113138 044.7220 316.2626 12.20082897408434
Epoch (UTC): 31 July 2014 14:19:26
Eccentricity: 0.0113138
inclination: 47.2310°
perigee height: 1502 km
apogee height: 1682 km
right ascension of ascending node: 307.3836°
argument of perigee: 44.7220°
revolutions per day: 12.20082897
mean anomaly at epoch: 316.2626°
orbit number at epoch: 40843

The dashed part of the orbit path shows where the satellite is in the earth's shadow,  

DLR